• în România
  • Lista ţărilor
  • Pe 7 zile
  • Temperatura apei
  • Hartă satelitară
  • Meteo pe hartă
  • Widget-uri
  • user-avatar
    Intrare

    Meteo pe oră la Ischgl

    Astăzi, 27 Aprilie, Joi

    Timp Temperatura Precipitaţii Vânt Presiune Umiditate
    00:00 -4°C° 2,1 mm 1 m/s 566 mmHg 98%
    01:00 -5°C° 2,1 mm 0 m/s 565 mmHg 98%
    02:00 -6°C° 1,3 mm 0 m/s 565 mmHg 98%
    03:00 -6°C° 1,3 mm 0 m/s 565 mmHg 98%
    04:00 -6°C° 1,3 mm 0 m/s 565 mmHg 98%
    05:00 -4°C° 0,7 mm 1 m/s 565 mmHg 98%
    06:00 -4°C° 0,7 mm 1 m/s 566 mmHg 98%
    07:00 -4°C° 0,7 mm 1 m/s 566 mmHg 98%
    08:00 -3°C° 0,8 mm 1 m/s 566 mmHg 98%
    09:00 -3°C° 0,8 mm 1 m/s 567 mmHg 98%
    10:00 -2°C° 0,8 mm 1 m/s 567 mmHg 97%
    11:00 -2°C° 1,1 mm 1 m/s 567 mmHg 98%
    12:00 -4°C° 1,1 mm 2 m/s 567 mmHg 98%
    13:00 -4°C° 1,1 mm 2 m/s 567 mmHg 98%
    14:00 -4°C° 1,6 mm 2 m/s 567 mmHg 98%
    15:00 -4°C° 1,6 mm 2 m/s 567 mmHg 98%
    16:00 -5°C° 1,6 mm 2 m/s 566 mmHg 98%
    17:00 -5°C° 1,4 mm 2 m/s 566 mmHg 98%
    18:00 -6°C° 1,4 mm 2 m/s 566 mmHg 98%
    19:00 -4°C° 1,4 mm 1 m/s 565 mmHg 98%
    20:00 -6°C° 1,4 mm 1 m/s 565 mmHg 98%
    21:00 -6°C° 1,4 mm 1 m/s 565 mmHg 98%
    22:00 -7°C° 1,4 mm 1 m/s 565 mmHg 98%
    23:00 -7°C° 1,3 mm 1 m/s 565 mmHg 98%

    Mâine, 28 Aprilie, Vineri

    Timp Temperatura Precipitaţii Vânt Presiune Umiditate
    00:00 -7°C° 1,3 mm 1 m/s 564 mmHg 98%
    01:00 -7°C° 1,3 mm 1 m/s 564 mmHg 98%
    02:00 -7°C° 1,1 mm 1 m/s 564 mmHg 98%
    03:00 -7°C° 1,1 mm 1 m/s 564 mmHg 98%
    04:00 -7°C° 1,1 mm 1 m/s 563 mmHg 98%
    05:00 -8°C° 1,4 mm 2 m/s 564 mmHg 98%
    06:00 -8°C° 1,4 mm 2 m/s 564 mmHg 98%
    07:00 -8°C° 1,4 mm 2 m/s 564 mmHg 98%
    08:00 -8°C° 1,4 mm 2 m/s 564 mmHg 98%
    09:00 -8°C° 1,4 mm 2 m/s 564 mmHg 98%
    10:00 -7°C° 1,4 mm 2 m/s 565 mmHg 98%
    11:00 -7°C° 1,1 mm 2 m/s 565 mmHg 98%
    12:00 -8°C° 1,1 mm 3 m/s 565 mmHg 98%
    13:00 -8°C° 1,1 mm 3 m/s 566 mmHg 97%
    14:00 -8°C° 0,8 mm 3 m/s 566 mmHg 97%
    15:00 -8°C° 0,8 mm 3 m/s 566 mmHg 97%
    16:00 -8°C° 0,8 mm 3 m/s 566 mmHg 97%
    17:00 -8°C° 0,3 mm 2 m/s 566 mmHg 97%
    18:00 -8°C° 0,3 mm 2 m/s 567 mmHg 97%
    19:00 -9°C° 0,3 mm 2 m/s 567 mmHg 97%
    20:00 -12°C° 0,1 mm 2 m/s 566 mmHg 97%
    21:00 -13°C° 0,1 mm 2 m/s 566 mmHg 98%
    22:00 -13°C° 0,1 mm 1 m/s 565 mmHg 98%
    23:00 -14°C° 0 mm 1 m/s 565 mmHg 98%

    Poimâine, 29 Aprilie, Sâmbătă

    Timp Temperatura Precipitaţii Vânt Presiune Umiditate
    00:00 -14°C° 0 mm 1 m/s 565 mmHg 97%
    01:00 -14°C° 0 mm 1 m/s 565 mmHg 97%
    02:00 -15°C° 0 mm 1 m/s 565 mmHg 97%
    03:00 -16°C° 0 mm 1 m/s 564 mmHg 97%
    04:00 -17°C° 0 mm 1 m/s 564 mmHg 97%
    05:00 -14°C° 0 mm 1 m/s 565 mmHg 96%
    06:00 -12°C° 0 mm 1 m/s 567 mmHg 96%
    07:00 -9°C° 0 mm 1 m/s 569 mmHg 95%
    08:00 -7°C° 0 mm 1 m/s 570 mmHg 95%
    09:00 -5°C° 0 mm 0 m/s 570 mmHg 96%
    10:00 -3°C° 0 mm 0 m/s 571 mmHg 96%
    11:00 -3°C° 0 mm 0 m/s 571 mmHg 96%
    12:00 -3°C° 0 mm 0 m/s 571 mmHg 96%
    13:00 -1°C° 0 mm 1 m/s 571 mmHg 96%
    14:00 -1°C° 0,1 mm 1 m/s 571 mmHg 96%
    15:00 -1°C° 0,1 mm 1 m/s 571 mmHg 97%
    16:00 -1°C° 0,1 mm 1 m/s 571 mmHg 97%
    17:00 -2°C° 0 mm 1 m/s 570 mmHg 97%
    18:00 -3°C° 0 mm 1 m/s 570 mmHg 97%
    19:00 -4°C° 0 mm 1 m/s 569 mmHg 97%
    20:00 -6°C° 0 mm 1 m/s 569 mmHg 97%
    21:00 -8°C° 0 mm 2 m/s 569 mmHg 96%
    22:00 -9°C° 0 mm 2 m/s 569 mmHg 96%
    23:00 -9°C° 0 mm 2 m/s 569 mmHg 96%

    30 Aprilie, Duminică

    Timp Temperatura Precipitaţii Vânt Presiune Umiditate
    00:00 -9°C° 0 mm 2 m/s 569 mmHg 96%
    01:00 -9°C° 0 mm 2 m/s 569 mmHg 96%
    02:00 -10°C° 0 mm 2 m/s 568 mmHg 96%
    03:00 -10°C° 0 mm 2 m/s 568 mmHg 96%
    04:00 -12°C° 0 mm 2 m/s 568 mmHg 96%
    05:00 -9°C° 0 mm 2 m/s 568 mmHg 95%
    06:00 -8°C° 0 mm 2 m/s 569 mmHg 95%
    07:00 -7°C° 0 mm 2 m/s 570 mmHg 94%
    08:00 -6°C° 0 mm 2 m/s 570 mmHg 95%
    09:00 -4°C° 0 mm 2 m/s 571 mmHg 96%
    10:00 -2°C° 0 mm 2 m/s 571 mmHg 96%
    11:00 -2°C° 0 mm 2 m/s 571 mmHg 96%
    12:00 -1°C° 0 mm 2 m/s 571 mmHg 96%
    13:00 -1°C° 0 mm 2 m/s 571 mmHg 96%
    14:00 -1°C° 0 mm 2 m/s 571 mmHg 96%
    15:00 -1°C° 0 mm 2 m/s 570 mmHg 95%
    16:00 -1°C° 0 mm 2 m/s 570 mmHg 95%
    17:00 -2°C° 0 mm 2 m/s 570 mmHg 96%
    18:00 -2°C° 0 mm 2 m/s 569 mmHg 96%
    19:00 -3°C° 0 mm 2 m/s 569 mmHg 97%
    20:00 -4°C° 0 mm 2 m/s 569 mmHg 97%
    21:00 -5°C° 0 mm 2 m/s 569 mmHg 96%
    22:00 -6°C° 0 mm 3 m/s 568 mmHg 96%
    23:00 -7°C° 0 mm 3 m/s 568 mmHg 96%

    1 Mai, Luni

    Timp Temperatura Precipitaţii Vânt Presiune Umiditate
    00:00 -7°C° 0 mm 3 m/s 568 mmHg 95%
    01:00 -8°C° 0 mm 3 m/s 567 mmHg 95%
    02:00 -8°C° 0 mm 3 m/s 567 mmHg 95%
    03:00 -8°C° 0 mm 3 m/s 567 mmHg 95%
    04:00 -8°C° 0 mm 3 m/s 566 mmHg 94%
    05:00 -7°C° 0 mm 3 m/s 567 mmHg 94%
    06:00 -5°C° 0 mm 2 m/s 567 mmHg 93%
    07:00 -4°C° 0 mm 2 m/s 567 mmHg 93%
    08:00 -3°C° 0 mm 2 m/s 568 mmHg 93%
    09:00 -2°C° 0 mm 2 m/s 568 mmHg 92%
    10:00 +1°C° 0 mm 2 m/s 569 mmHg 92%
    11:00 +1°C° 0,3 mm 2 m/s 569 mmHg 92%
    12:00 +1°C° 0,3 mm 2 m/s 569 mmHg 92%
    13:00 +1°C° 0,3 mm 2 m/s 570 mmHg 93%
    14:00 +1°C° 1,8 mm 2 m/s 569 mmHg 94%
    15:00 -1°C° 1,8 mm 2 m/s 569 mmHg 95%
    16:00 0°C° 1,8 mm 1 m/s 569 mmHg 96%
    17:00 -3°C° 2,2 mm 2 m/s 569 mmHg 97%
    18:00 -3°C° 2,2 mm 2 m/s 569 mmHg 97%
    19:00 -4°C° 2,2 mm 2 m/s 569 mmHg 98%
    20:00 -5°C° 2,3 mm 2 m/s 569 mmHg 98%
    21:00 -5°C° 2,3 mm 2 m/s 570 mmHg 98%
    22:00 -5°C° 2,3 mm 2 m/s 570 mmHg 98%
    23:00 -6°C° 1,5 mm 2 m/s 570 mmHg 98%

    2 Mai, Marţi

    Timp Temperatura Precipitaţii Vânt Presiune Umiditate
    00:00 -4°C° 1,5 mm 1 m/s 570 mmHg 98%
    01:00 -4°C° 1,5 mm 1 m/s 570 mmHg 98%
    02:00 -4°C° 0,7 mm 1 m/s 570 mmHg 97%
    03:00 -4°C° 0,7 mm 1 m/s 570 mmHg 97%
    04:00 -6°C° 0,7 mm 1 m/s 570 mmHg 97%
    05:00 -4°C° 0,5 mm 1 m/s 570 mmHg 97%
    06:00 -3°C° 0,5 mm 1 m/s 571 mmHg 97%
    07:00 -3°C° 0,5 mm 1 m/s 571 mmHg 97%
    08:00 -2°C° 0,4 mm 1 m/s 572 mmHg 97%
    09:00 -1°C° 0,4 mm 1 m/s 572 mmHg 97%
    10:00 0°C° 0,4 mm 1 m/s 573 mmHg 97%
    11:00 -2°C° 0,6 mm 2 m/s 573 mmHg 97%
    12:00 -2°C° 0,6 mm 2 m/s 573 mmHg 97%
    13:00 -2°C° 0,6 mm 2 m/s 573 mmHg 96%
    14:00 -2°C° 0,7 mm 2 m/s 573 mmHg 97%
    15:00 -2°C° 0,7 mm 2 m/s 573 mmHg 97%
    16:00 -2°C° 0,7 mm 2 m/s 573 mmHg 97%
    17:00 -2°C° 0,5 mm 2 m/s 573 mmHg 98%
    18:00 -1°C° 0,5 mm 1 m/s 573 mmHg 98%
    19:00 -1°C° 0,5 mm 1 m/s 573 mmHg 98%
    20:00 -1°C° 0,7 mm 1 m/s 573 mmHg 98%
    21:00 -1°C° 0,7 mm 1 m/s 573 mmHg 98%
    22:00 -2°C° 0,7 mm 1 m/s 573 mmHg 97%
    23:00 -3°C° 0,2 mm 1 m/s 572 mmHg 98%
    Arată mai mult